Flag for Germany Weather past 2 weeks in Limburg an der Lahn, Hesse, Germany

36 °F

Light rain. Overcast.

Feels Like: 30 °F
Forecast: 32 / 45 °F
Wind: 7 mph from Northeast

Location: Wiesbaden Airport

Current Time: Oct 14, 2015 at 6:54:33 AM

Latest Report: Oct 14, 2015 at 5:58 AM

Visibility: N/A

Pressure: 30.05 "Hg

Humidity: 91%

Dew point: 34 °F

Location of Limburg an der LahnLocation

Historic Weather in Limburg an der Lahn — Graph


Limburg an der Lahn temperature yesterday

Maximum temperature yesterday: 51 °F (at 3:58 PM)
Minimum temperature yesterday: 35 °F (at 6:58 AM)
Average temperature yesterday: 43 °F

Past Weeks' High & Low Weather Summary

High68 °F (Oct 2, 3:58 PM)100% (Oct 4, 9:00 AM)30.55 "Hg (Oct 4, 9:00 AM)
Low35 °F (Oct 13, 6:58 AM)37% (Oct 1, 3:58 PM)29.67 "Hg (Oct 6, 3:58 PM)
Average54 °F74%30.09 "Hg
* Reported Sep 29 4:58 AM — Oct 14 4:58 AM, Limburg an der Lahn, Weather by CustomWeather, © 2015

Note: Actual official high and low records may vary slightly from our data, if they occured in-between our weather recording intervals... More about our weather records


Limburg an der Lahn weather history for previous 24 hours

Time TempWeatherWind HumidityBarometerVisibility
4:58 AM
Wed, Oct 14
37 °FLight rain. Passing clouds.7 mph87%30.04 "HgN/A
3:58 AM37 °FClear.6 mph87%30.05 "HgN/A
3:04 AM37 °FLight rain. Passing clouds.10 mph87%30.04 "HgN/A
2:58 AM38 °FLight rain. Passing clouds.9 mph87%30.04 "HgN/A
1:58 AM39 °FOvercast.8 mph81%30.04 "HgN/A
12:58 AM40 °FDrizzle. Overcast.6 mph83%30.06 "HgN/A
11:58 PM
Tue, Oct 13
41 °FLight rain. Overcast.6 mph81%30.06 "HgN/A
10:58 PM41 °FOvercast.6 mph82%30.05 "HgN/A
10:02 PM41 °FPassing clouds.8 mph81%30.02 "HgN/A
8:58 PM43 °FLight rain. Overcast.8 mph76%30.03 "HgN/A
7:58 PM43 °FLight rain. Overcast.7 mph76%30.02 "HgN/A
7:00 PM45 °FLight rain. Overcast.7 mph71%29.99 "HgN/A
6:58 PM45 °FOvercast.6 mph71%30.01 "HgN/A
5:58 PM46 °FPartly sunny.8 mph67%29.99 "HgN/A
4:58 PM48 °FOvercast.10 mph66%29.99 "HgN/A
3:58 PM51 °FPartly sunny.2 mph61%29.98 "HgN/A
2:56 PM50 °FPartly sunny.9 mph62%29.97 "HgN/A
12:58 PM50 °FPassing clouds.13 mph62%29.98 "HgN/A
11:58 AM50 °FScattered clouds.8 mph62%29.99 "Hg5 mi
10:57 AM46 °FSunny.9 mph68%29.99 "Hg5 mi
9:58 AM44 °FSunny.1 mph74%29.99 "HgN/A
8:58 AM38 °FSunny.No wind84%29.98 "HgN/A
7:58 AM39 °FClear.2 mph79%29.97 "HgN/A
6:58 AM35 °FFog.No wind88%29.98 "Hg5 mi
Weather by CustomWeather, © 2015

See weather overviewHow to use our weather pages